www.pogodaiklimat.ru
Время
(UTC), дата
21 28.06
00 29.06
03 29.06
06 29.06
09 29.06
12 29.06
15 29.06
18 29.06
21 29.06
00 30.06
03 30.06
06 30.06
09 30.06
12 30.06
15 30.06
18 30.06
21 30.06
00 1.07
03 1.07
06 1.07
09 1.07
12 1.07
15 1.07
18 1.07
21 1.07
00 2.07
03 2.07
06 2.07
09 2.07
12 2.07
15 2.07
18 2.07
21 2.07
00 3.07
03 3.07
06 3.07
09 3.07
12 3.07
15 3.07
18 3.07
21 3.07
00 4.07
03 4.07
06 4.07
09 4.07
12 4.07
15 4.07
18 4.07
21 4.07
00 5.07
03 5.07
06 5.07
09 5.07
12 5.07
15 5.07
18 5.07
Ветер
(напр.,м/с)
Видим. Явления Облачность Т
(С)
Тd
(С)
f
(%)
Тe
(С)
Тes
(С)
Комфортность P
(гПа)
Po
(гПа)
Тmin
(С)
Tmax
(С)
R
(мм)
R24
(мм)
S
(см)
З 3 50 км 8/0
[Ac trans]
+15.5 +8.6 63 +15 +15 1012.2 953.4
З 2 50 км 9/0
[Ac trans Ci fib]
+16.0 +9.0 63 +16 +18 1013.9 955.0 +14.2
З 3 50 км 9/0
[Ac As Ci fib]
+16.4 +6.4 52 +16 +20 1014.4 955.5
ЮЗ 2 50 км 10/10 600 м
[Cb calv]
+16.1 +8.2 59 +16 +16 1014.5 955.6
З 3 50 км 10/3 600 м
[Cb calv Ac trans Cs]
+17.9 +7.4 50 +18 +21 1014.3 955.7
З 2 50 км 10/10 600 м
[Cb calv]
+15.0 +4.8 50 +15 +15 1014.4 955.2 +18.1
ЮЗ 2 20 км слаб. ливневой дождь 10/10 600 м
[Cb calv]
+11.0 +8.4 84 +10 +10 1016.7 956.5
ЮВ 1 н/о {ливн. дождь} 8/8 600 м
[Cb calv]
+8.8 +8.0 95 +8 +8 1016.1 955.6
ЮВ 1 50 км ясно +6.7 +6.0 95 +6 +6 1016.4 955.4
Ю 1 50 км 1/0
[Ci fib]
+12.2 +7.7 74 +12 +16 1014.9 955.2 +6.4 4
Ю 2 50 км 8/5 600 м
[Cb calv Ci fib]
+15.2 +9.4 68 +15 +20 1014.4 955.3
Ю 3 50 км 8/1 600 м
[Cb calv Ci fib]
+19.2 +8.9 51 +20 +29 1012.8 954.5
ЮЗ 3 50 км 9/0
[Ci fib]
+22.4 +6.1 35 +23 +29 комфорт 1011.6 954.0
ЮЗ 3 50 км 9/0
[Ci fib]
+22.9 +6.0 33 +23 +25 комфорт 1011.8 954.3 +23.0
ЮЗ 2 50 км 3/0
[Ac trans Ci fib]
+18.5 +6.5 45 +19 +19 1014.2 955.7
В 1 н/о 9/0
[Ci fib]
+12.3 +8.5 78 +12 +12 1017.0 957.2
В 1 50 км 4/0
[Ci fib]
+12.1 +9.8 86 +12 +12 1017.9 958.0
штиль 0 50 км 8/0
[Ci fib]
+17.7 +11.5 67 +18 +21 1018.1 959.4 +11.2
СВ 1 50 км 8/3 600 м
[Cu hum Ci fib]
+22.0 +9.1 44 +23 +31 комфорт 1017.9 959.9
В 2 50 км 9/6 600 м
[Cu hum Ci fib]
+24.6 +7.4 33 +25 +30 комфорт 1017.1 959.5
ЮЗ 1 50 км 9/8 600 м
[Cb calv Ci fib]
+26.6 +6.1 27 +26 +28 жарко 1015.4 958.4
В 1 50 км 9/0
[Ac trans Ci fib]
+25.9 +10.6 38 +27 +29 жарко 1015.0 958.0 +26.8
В 2 50 км 8/0
[Ci fib]
+20.7 +9.5 49 +23 +23 комфорт 1016.2 958.1
В 1 н/о 9/0
[Ci fib]
+18.3 +8.6 53 +20 +20 1016.5 957.9
В 1 50 км 3/0
[Ci fib]
+18.4 +7.1 48 +20 +20 1015.9 957.3
ЮВ 1 50 км ясно +20.3 +9.9 51 +23 +26 комфорт 1015.4 957.2 +17.2
В 2 50 км 1/0
[Ci fib]
+25.7 +10.6 39 +27 +37 жарко 1013.1 956.1
В 2 50 км 1/0
[Ci fib]
+29.1 +11.5 34 +30 +44 жарко 1011.5 955.2
ЮВ 3 50 км 1/0
[Ci fib]
+30.5 +9.4 27 +30 +38 жарко 1010.3 954.4
В 3 50 км 1/0
[Ci fib]
+29.6 +9.5 29 +29 +31 жарко 1009.4 953.3 +30.9
В 2 50 км 3/0
[Ci fib]
+26.1 +10.2 37 +27 +27 жарко 1009.9 953.2
В 2 н/о ясно +23.3 +8.3 38 +24 +24 комфорт 1010.3 953.0
ЮВ 1 50 км ясно +21.9 +7.2 39 +23 +23 комфорт 1009.4 951.8
ЮВ 1 50 км ясно +23.6 +10.7 44 +25 +28 комфорт 1008.8 951.6 +21.3
В 1 50 км 3/0
[Ac trans]
+28.0 +13.6 41 +30 +40 жарко 1007.1 951.0
В 3 50 км 4/4 600 м
[Cb calv]
+31.9 +12.4 30 +32 +39 жарко 1006.9 951.4
ЮВ 2 50 км 8/6 600 м
[Cb calv Ci fib]
+31.4 +10.6 28 +31 +35 жарко 1006.2 950.6
ЮВ 1 50 км 8/4 600 м
[Cb calv Ac trans]
+32.2 +11.9 29 +32 +33 жарко 1003.3 948.1 +32.2
ЮВ 1 50 км 9/9 600 м
[Cb calv]
+27.4 +10.6 35 +28 +28 жарко 1004.6 948.4
ЮВ 1 н/о 9/0
[Ci fib]
+23.1 +12.7 52 +26 +26 жарко 1004.7 947.8
ЮВ 1 50 км 4/0
[Ci fib]
+21.0 +10.6 51 +24 +24 комфорт 1004.9 947.5
ЮЗ 1 50 км 9/0
[Ac trans Ci fib]
+22.3 +12.0 52 +25 +27 комфорт 1005.1 948.0 +19.3
ЮЗ 1 50 км 9/0
[Ac trans Ci fib]
+25.3 +16.0 56 +29 +36 душно 1003.7 947.3
С 1 50 км 9/4 600 м
[Cb calv As trans Ci fib]
+28.6 +16.0 46 +32 +37 душно 1002.5 946.8
СЗ 1 50 км гроза без осадков {ливн. дождь} 10/8 600 м
[Cb cap As trans]
+22.8 +17.1 70 +28 +29 душно 1003.3 946.5
ЮВ 1 50 км гроза без осадков {ливн. дождь} 10/8 600 м
[Cb cap As trans]
+21.8 +17.4 76 +26 +26 душно 1003.6 946.6 +30.4 4
ЮВ 1
{22}
20 км слаб. ливневой дождь {гроза} 10/5 600 м
[Cb calv As trans]
+16.2 +15.2 94 +17 +17 1005.2 947.0
штиль 0
{15}
н/о {гроза, ливн. дождь} 10/0
[As trans]
+15.2 +14.3 94 +15 +15 1005.0 946.5
СВ 1 50 км 4/0
[Ci fib]
+15.3 +14.6 96 +16 +16 1004.2 945.9
СВ 2 4000 м гроза без осадков {ливн. дождь} 10/8 600 м
[Cb cap As trans]
+17.1 +16.4 96 +17 +18 1004.1 946.2 +14.7 22
СВ 1 2000 м в посл. час ливневой дождь {гроза} 10/10 600 м
[Cb calv]
+18.7 +17.7 94 +21 +21 комфорт 1004.4 946.7
Ю 1 4000 м дымка {гроза, ливн. дождь} 10/5 600 м
[Cb calv As trans]
+22.4 +19.9 86 +29 +32 очень
душно
1003.1 946.3
З 1 50 км 10/8 600 м
[Cb calv Ac trans Cs]
+25.1 +17.6 63 +29 +30 душно 1001.2 944.9
СВ 2
{12}
4000 м слаб. ливневой дождь {гроза} 10/10 600 м
[Cb cap]
+17.0 +16.3 96 +17 +17 1003.1 945.3 +26.1 27
В 1 4000 м дымка {гроза, ливн. дождь} 10/10 600 м
[Cb calv]
+17.4 +16.7 96 +18 +18 1002.1 944.3
Ю 1 н/о слаб. ливневой дождь {гроза} 10/10 600 м
[Cb calv]
+17.2 +16.5 96 +18 +18 1002.4 944.6
Местоположение метеостанции Северо-Енисейский (Красноярский край, Россия): широта 60.38 долгота 93.03 высота над уровнем моря 511 м.
В архиве по умолчанию представлена погода в Северо-Енисейском за последнюю неделю. Архивные данные за месяц целиком и за предыдущие месяцы, начиная с января 2011 года, Вы можете получить, выбрав интересующий диапазон дат из раскрывающегося списка и нажав кнопку "Найти!".
*Определитесь, кто Вы:
Внимание! Время в таблицах - всемирное. Для получения местного времени необходимо прибавить поправку, которая равна 7 ч.
Смотрите также архив погоды в соседних городах и на ближайших метеорологических станциях:
Партнеры нашего сайта:      
Пояснения к столбцам:
  • Ветер - указаны скорость ветра в м/с - средняя за 10 мин, порывы в срок и между сроками (в фигурных скобках) и направление, откуда дует ветер: С - северный,
  • СВ - северо-восточный, В - восточный, ЮВ - юго-восточный, Ю - южный, ЮЗ - юго-западный, З - западный, СЗ - северо-западный.
  • Видимость - горизонтальная дальность видимости в метрах или километрах. При видимости от 1 до 10 км при отсутствии осадков обычно наблюдается дымка, при ухудшении видимости до 1 км и менее - туман. В сухую погоду видимость может ухудшаться дымом, пылью или мглою.
  • Явления - указаны атмосферные явления, наблюдавшиеся в срок или в последний час перед сроком; фигурными скобками обозначены явления, наблюдавшиеся между сроками (за 1-3 часа до срока); квадратными скобками обозначены град или гололедные отложения с указанием их диаметра в мм.
  • Облачность - указаны через наклонную черту общая и нижняя облачность в баллах и высота нижней границы облаков в метрах; квадратными скобками обозначены формы облаков: Ci - перистые, Cs - перисто-слоистые, Cc - перисто-кучевые, Ac - высококучевые, As - высокослоистые, Sc - слоисто-кучевые, Ns - слоисто-дождевые, Cu - кучевые, Cb - кучево-дождевые. Подробнее классификацию облаков см. в Атласе облаков (PDF).
  • T - Температура воздуха - температура, измеренная на высоте 2 м над землей.
  • Td - Температура точки росы - температура, при понижении до которой содержащийся в воздухе водяной пар достигнет насыщения.
  • f - Относительная влажность воздуха - влажноcть воздуха, измеренная на высоте 2 м над землей.
  • Te - Эффективная температура - температура, которую ощущает одетый по сезону человек в тени. Характеристика душности погоды. При расчете учитывается влияние влажности воздуха и скорости ветра на теплоощущения человека.
  • Tes - Эффективная температура на солнце - температура, которую ощущает человек, с поправкой на солнечный нагрев. Характеристика знойности погоды. Зависит от высоты солнца над горизонтом, облачности и скорости ветра. Ночью, в пасмурную погоду, а также при ветре 12 м/с и более поправка равна нулю.
  • P - Атмосферное давление - приведенное к уровню моря атмосферное давление.
  • Po - Атмосферное давление - измеренное на уровне метеостанции атмосферное давление.
  • Tmin - Минимальная температура - минимум температуры воздуха на высоте 2 м над землей.
  • Tmax - Максимальная температура - максимум температуры воздуха на высоте 2 м над землей.
  • R - Количество осадков - Количество выпавших осадков за период времени, мм. При наведении курсора мыши на число - период времени, за который выпало указанное количество осадков.
  • R24 - Количество осадков - Количество выпавших осадков за 24 часа, мм.
  • S - Снежный покров - Высота снежного покрова, см. При наведении курсора мыши на число - состояние снежного покрова и степень покрытия местности в баллах.